SPACEBEE-29 (46949 NORAD) Tracking and Keplerian Element Data
This shows tracking and keplerian element data for the satellite.
Feedback or suggestion? Click here.
Element | Value |
Catalog | 46949 |
Name | SPACEBEE-29 |
Epoch Orbit | 894 |
Epoch Day | 17.95435524 |
Epoch Year | 2021 |
RAAN | 157.3113 |
Inclination | 97.3737 |
Eccentricity | 0.0016604 |
Argument of Perigee | 104.5537 |
Mean Anonmoly | 255.7541 |
Mean Motion | 15.20962322 |
Decay Rate | 3.687E-05 |
L1 | 1 46949U 20085W 21017.95435524 .00003687 00000-0 16897-3 0 9993 |
L2 | 2 46949 97.3737 157.3113 0016604 104.5537 255.7541 15.20962322 8945 |
Live tracking and technical data element details for SPACEBEE-29 (NORAD 46949). SPACEBEE-29 can be tracked NOW for your location showing map with azimuth and elevation plus other details from your city location.
Track the satellite on the map from your city or location and see movement details for azimuth, elevation, latitude, longitude, range, height, and movement on the map or in text.
IsCatalogInMostPopularTable: catalog: 46949, numindb: 20
Update: records affected: 1
GetName: 46949 SPACEBEE-29
Hit Count: updated at: Tue, 19 Jan 2021 01:41:26 GMT